TimePDT,TemperatureF,Dew PointF,Humidity,Sea Level PressureIn,VisibilityMPH,Wind Direction,Wind SpeedMPH,Gust SpeedMPH,PrecipitationIn,Events,Conditions,WindDirDegrees,DateUTC
12:15 AM,59.0,46.4,63,30.21,9.0,Calm,Calm,-,N/A,,Clear,0,2012-09-30 07:15:00
12:35 AM,59.0,46.4,63,30.22,9.0,Calm,Calm,-,N/A,,Clear,0,2012-09-30 07:35:00
12:55 AM,59.0,46.4,63,30.22,9.0,WNW,3.5,-,N/A,,Clear,290,2012-09-30 07:55:00
1:15 AM,62.6,44.6,52,30.22,9.0,West,5.8,-,N/A,,Clear,270,2012-09-30 08:15:00
1:35 AM,57.2,44.6,63,30.22,9.0,Calm,Calm,-,N/A,,Clear,0,2012-09-30 08:35:00
1:55 AM,53.6,44.6,72,30.22,9.0,ESE,4.6,-,N/A,,Clear,120,2012-09-30 08:55:00
2:15 AM,53.6,42.8,67,30.22,8.0,SE,4.6,-,N/A,,Clear,130,2012-09-30 09:15:00
2:35 AM,-9999,-9999,N/A,30.21,8.0,SE,4.6,-,N/A,,Unknown,130,2012-09-30 09:35:00
2:55 AM,51.8,41.0,67,30.22,8.0,ENE,3.5,-,N/A,,Clear,60,2012-09-30 09:55:00
3:15 AM,53.6,42.8,67,30.22,9.0,Calm,Calm,-,N/A,,Clear,0,2012-09-30 10:15:00
3:35 AM,50.0,41.0,71,30.22,10.0,SE,3.5,-,N/A,,Unknown,130,2012-09-30 10:35:00
3:55 AM,50.0,41.0,71,30.22,10.0,ESE,4.6,-,N/A,,Clear,110,2012-09-30 10:55:00
4:15 AM,51.8,41.0,67,30.22,9.0,SE,5.8,-,N/A,,Clear,130,2012-09-30 11:15:00
4:35 AM,50.0,41.0,71,30.22,9.0,Calm,Calm,-,N/A,,Unknown,0,2012-09-30 11:35:00
4:55 AM,48.2,41.0,76,30.22,9.0,Calm,Calm,-,N/A,,Clear,0,2012-09-30 11:55:00
5:15 AM,48.2,41.0,76,30.22,10.0,SE,3.5,-,N/A,,Unknown,140,2012-09-30 12:15:00
5:35 AM,50.0,39.2,66,30.22,10.0,Calm,Calm,-,N/A,,Clear,0,2012-09-30 12:35:00
5:55 AM,48.2,41.0,76,-9999,9.0,North,-9999.0,-,N/A,,Unknown,0,2012-09-30 12:55:00
6:15 AM,48.2,39.2,71,30.22,10.0,Calm,Calm,-,N/A,,Unknown,0,2012-09-30 13:15:00
6:35 AM,50.0,41.0,71,30.22,9.0,Calm,Calm,-,N/A,,Clear,0,2012-09-30 13:35:00
6:55 AM,50.0,41.0,71,30.23,-9999.0,Calm,Calm,-,N/A,,Unknown,0,2012-09-30 13:55:00
7:15 AM,50.0,41.0,71,30.23,7.0,Calm,Calm,-,N/A,,Clear,0,2012-09-30 14:15:00
7:35 AM,53.6,41.0,62,30.24,7.0,ESE,4.6,-,N/A,,Clear,110,2012-09-30 14:35:00
7:55 AM,57.2,42.8,59,30.24,8.0,Calm,Calm,-,N/A,,Unknown,0,2012-09-30 14:55:00
8:15 AM,-9999,-9999,N/A,-9999,7.0,North,-9999.0,-,N/A,,Unknown,0,2012-09-30 15:15:00
8:35 AM,64.4,44.6,49,30.24,8.0,SE,4.6,-,N/A,,Unknown,140,2012-09-30 15:35:00
8:55 AM,68.0,44.6,43,30.24,8.0,East,3.5,-,N/A,,Clear,100,2012-09-30 15:55:00
9:15 AM,69.8,42.8,38,30.24,8.0,Calm,Calm,-,N/A,,Clear,0,2012-09-30 16:15:00
9:35 AM,73.4,39.2,29,30.24,9.0,Calm,Calm,-,N/A,,Clear,0,2012-09-30 16:35:00
9:55 AM,75.2,41.0,29,30.24,9.0,Calm,Calm,-,N/A,,Clear,0,2012-09-30 16:55:00
10:15 AM,77.0,41.0,28,30.24,9.0,SW,4.6,-,N/A,,Clear,220,2012-09-30 17:15:00
10:35 AM,78.8,39.2,24,30.24,8.0,SW,4.6,-,N/A,,Clear,220,2012-09-30 17:35:00
10:55 AM,80.6,39.2,23,30.23,8.0,Calm,Calm,-,N/A,,Clear,0,2012-09-30 17:55:00
11:15 AM,82.4,37.4,20,30.23,9.0,Calm,Calm,-,N/A,,Clear,0,2012-09-30 18:15:00
11:35 AM,84.2,32.0,15,30.22,9.0,SE,4.6,-,N/A,,Clear,140,2012-09-30 18:35:00
11:55 AM,86.0,32.0,14,30.22,10.0,SE,11.5,20.7,N/A,,Clear,140,2012-09-30 18:55:00
12:15 PM,86.0,30.2,13,30.22,10.0,ESE,9.2,19.6,N/A,,Clear,120,2012-09-30 19:15:00
12:35 PM,86.0,30.2,13,30.21,10.0,SE,11.5,21.9,N/A,,Clear,140,2012-09-30 19:35:00
12:55 PM,86.0,28.4,12,30.21,10.0,ESE,13.8,23.0,N/A,,Clear,120,2012-09-30 19:55:00
1:15 PM,86.0,30.2,13,30.20,8.0,ESE,13.8,21.9,N/A,,Clear,120,2012-09-30 20:15:00
1:35 PM,86.0,32.0,14,30.20,10.0,ESE,15.0,19.6,N/A,,Clear,120,2012-09-30 20:35:00
1:55 PM,86.0,32.0,14,30.19,9.0,SSE,10.4,-,N/A,,Clear,150,2012-09-30 20:55:00
2:15 PM,86.0,30.2,13,30.19,10.0,SE,12.7,21.9,N/A,,Clear,130,2012-09-30 21:15:00
2:35 PM,86.0,30.2,13,30.18,10.0,SE,15.0,20.7,N/A,,Clear,130,2012-09-30 21:35:00
2:55 PM,86.0,30.2,13,30.18,10.0,SE,16.1,20.7,N/A,,Clear,140,2012-09-30 21:55:00
3:15 PM,87.8,28.4,12,30.17,10.0,ESE,17.3,20.7,N/A,,Clear,110,2012-09-30 22:15:00
3:35 PM,87.8,28.4,12,30.17,10.0,ESE,8.1,17.3,N/A,,Clear,120,2012-09-30 22:35:00
3:55 PM,86.0,28.4,12,30.17,10.0,SE,6.9,-,N/A,,Clear,140,2012-09-30 22:55:00
4:15 PM,84.2,42.8,23,30.17,9.0,NW,18.4,21.9,N/A,,Clear,320,2012-09-30 23:15:00
4:35 PM,82.4,42.8,25,30.17,10.0,NW,13.8,-,N/A,,Clear,310,2012-09-30 23:35:00
4:55 PM,82.4,42.8,25,30.17,9.0,NW,11.5,-,N/A,,Clear,310,2012-09-30 23:55:00
5:15 PM,80.6,42.8,26,30.17,9.0,NW,15.0,19.6,N/A,,Clear,320,2012-10-01 00:15:00
5:35 PM,80.6,42.8,26,30.18,9.0,NW,10.4,-,N/A,,Clear,310,2012-10-01 00:35:00
5:55 PM,77.0,44.6,32,30.18,9.0,NW,15.0,-,N/A,,Clear,310,2012-10-01 00:55:00
6:15 PM,77.0,44.6,32,30.18,9.0,WNW,13.8,-,N/A,,Clear,300,2012-10-01 01:15:00
6:35 PM,75.2,44.6,34,30.19,9.0,WNW,9.2,-,N/A,,Clear,300,2012-10-01 01:35:00
6:55 PM,71.6,44.6,38,30.19,9.0,West,8.1,-,N/A,,Clear,270,2012-10-01 01:55:00
7:15 PM,71.6,44.6,38,30.19,10.0,West,5.8,-,N/A,,Clear,280,2012-10-01 02:15:00
7:35 PM,69.8,44.6,40,30.20,10.0,WSW,6.9,-,N/A,,Clear,250,2012-10-01 02:35:00
7:55 PM,69.8,46.4,43,30.21,10.0,West,3.5,-,N/A,,Clear,270,2012-10-01 02:55:00
8:15 PM,66.2,44.6,46,30.21,10.0,NNE,3.5,-,N/A,,Clear,20,2012-10-01 03:15:00
8:35 PM,68.0,44.6,43,30.21,10.0,NNW,3.5,-,N/A,,Clear,330,2012-10-01 03:35:00
8:55 PM,66.2,44.6,46,30.21,10.0,North,4.6,-,N/A,,Clear,360,2012-10-01 03:55:00
9:15 PM,64.4,44.6,49,30.22,10.0,Calm,Calm,-,N/A,,Clear,0,2012-10-01 04:15:00
9:55 PM,62.6,44.6,52,30.22,9.0,Calm,Calm,-,N/A,,Clear,0,2012-10-01 04:55:00
10:15 PM,64.4,44.6,49,30.21,10.0,Calm,Calm,-,N/A,,Clear,0,2012-10-01 05:15:00
10:35 PM,59.0,44.6,59,30.21,10.0,SSE,3.5,-,N/A,,Clear,160,2012-10-01 05:35:00
10:55 PM,57.2,44.6,63,30.21,9.0,ESE,4.6,-,N/A,,Clear,120,2012-10-01 05:55:00
11:15 PM,57.2,44.6,63,30.20,9.0,Calm,Calm,-,N/A,,Clear,0,2012-10-01 06:15:00
11:35 PM,57.2,44.6,63,30.20,9.0,Calm,Calm,-,N/A,,Clear,0,2012-10-01 06:35:00
11:55 PM,57.2,42.8,59,30.20,10.0,Calm,Calm,-,N/A,,Clear,0,2012-10-01 06:55:00